Weather History for Jackson, KY

Change the Weather History Date:

Friday, November 2, 2012

  Actual Average Record
Temperature  
Mean Temperature 48 °F 53 °F  
Max Temperature 56 °F 63 °F 82 °F (2004)
Min Temperature 40 °F 44 °F 27 °F (1993)
Degree Days  
Heating Degree Days 17 12  
Month to date heating degree days 36 24  
Since 1 July heating degree days 402 321  
Cooling Degree Days 0 0  
Month to date cooling degree days 0 0  
Year to date cooling degree days 1318 1150  
Moisture  
Dew Point 27 °F    
Average Humidity 46    
Maximum Humidity 60    
Minimum Humidity 32    
Precipitation  
Precipitation 0.00 in 0.12 in 0.83 in (1999)
Month to date precipitation T 0.25  
Year to date precipitation 44.76 40.45  
Snow  
Snow 0.00 in 0.00 in - ()
Month to date snowfall 0.0 0.0  
Since 1 July snowfall 1.1 0.1  
Since 1 September snowfall 1.1 0.1  
Snow Depth 0.00 in    
Sea Level Pressure  
Sea Level Pressure 29.95 in    
Wind  
Wind Speed 4 mph (NW)    
Max Wind Speed 12 mph    
Max Gust Speed 17 mph    
Visibility 10 miles    
Events      
T = Trace of Precipitation, MM = Missing Value Source: NWS Daily Summary

Daily Weather History Graph

Daily Weather History Graph

Search for Another Location

Airport:

Trip Planner

Search our weather history database for the weather conditions in past years. The results will help you decide how hot, cold, wet, or windy it might be!

Date:

Astronomy

Nov. 02, 2012 Rise Set
Actual Time 7:59 AM EDT 6:33 PM EDT
Civil Twilight 7:32 AM EDT 7:00 PM EDT
Nautical Twilight 7:01 AM EDT 7:31 PM EDT
Astronomical Twilight 6:31 AM EDT 8:01 PM EDT
Moon 9:21 PM EDT (11/2) 11:17 AM EDT (11/2)
Length of Visible Light 11h 27m
Length of Day
10h 33m
Waning Gibbous, 87% of the Moon is Illuminated
Nov 2
Waning Gibbous
Nov 6
Last Quarter
Nov 13
New
Nov 20
First Quarter
Nov 28
Full

Hourly Weather History & Observations

Time (EDT) Temp. Windchill Dew Point Humidity Pressure Visibility Wind Dir Wind Speed Gust Speed Precip Events Conditions
12:53 AM 46.0 °F 44.8 °F 23.0 °F 40% 29.89 in 10.0 mi SW 3.5 mph - N/A   Overcast
1:53 AM 46.0 °F 43.9 °F 24.1 °F 42% 29.88 in 10.0 mi Variable 4.6 mph - N/A   Overcast
2:53 AM 46.0 °F - 26.1 °F 46% 29.87 in 10.0 mi Calm Calm - N/A   Overcast
3:53 AM 46.0 °F - 26.1 °F 46% 29.87 in 10.0 mi Calm Calm - N/A   Overcast
4:53 AM 46.0 °F 44.8 °F 26.1 °F 46% 29.84 in 10.0 mi Variable 3.5 mph - N/A   Overcast
5:53 AM 46.0 °F - 28.0 °F 50% 29.84 in 10.0 mi Calm Calm - N/A   Overcast
6:53 AM 46.0 °F 43.9 °F 28.9 °F 51% 29.85 in 10.0 mi Variable 4.6 mph - N/A   Overcast
7:53 AM 46.0 °F 43.9 °F 30.0 °F 54% 29.87 in 10.0 mi Variable 4.6 mph - N/A   Overcast
8:53 AM 46.9 °F - 30.9 °F 54% 29.89 in 10.0 mi Variable 4.6 mph - N/A   Mostly Cloudy
9:53 AM 46.9 °F - 32.0 °F 56% 29.94 in 10.0 mi Variable 6.9 mph - N/A   Overcast
10:53 AM 48.9 °F - 30.0 °F 48% 29.96 in 10.0 mi Variable 5.8 mph - N/A   Clear
11:53 AM 51.1 °F - 28.9 °F 43% 29.96 in 10.0 mi Variable 5.8 mph - N/A   Clear
12:53 PM 51.1 °F - 27.0 °F 39% 29.96 in 10.0 mi Variable 6.9 mph - N/A   Clear
1:53 PM 53.1 °F - 28.0 °F 38% 29.96 in 10.0 mi Variable 3.5 mph - N/A   Clear
2:53 PM 54.0 °F - 26.1 °F 34% 29.96 in 10.0 mi Calm Calm - N/A   Clear
3:53 PM 55.0 °F - 26.1 °F 33% 29.95 in 10.0 mi Variable 3.5 mph - N/A   Clear
4:53 PM 53.1 °F - 26.1 °F 35% 29.97 in 10.0 mi WNW 6.9 mph - N/A   Clear
5:53 PM 52.0 °F - 26.1 °F 37% 29.99 in 10.0 mi WNW 5.8 mph - N/A   Clear
6:53 PM 48.9 °F - 27.0 °F 43% 30.01 in 10.0 mi NW 5.8 mph - N/A   Clear
7:53 PM 46.9 °F - 26.1 °F 44% 30.03 in 10.0 mi NNW 5.8 mph - N/A   Clear
8:53 PM 46.0 °F 44.8 °F 27.0 °F 47% 30.04 in 10.0 mi NW 3.5 mph - N/A   Clear
9:53 PM 46.0 °F 43.9 °F 27.0 °F 47% 30.05 in 10.0 mi North 4.6 mph - N/A   Clear
10:53 PM 43.0 °F - 28.0 °F 56% 30.06 in 10.0 mi Calm Calm - N/A   Clear
11:53 PM 41.0 °F - 28.9 °F 62% 30.06 in 10.0 mi Calm Calm - N/A   Clear